�N����,�����b,�ŏ������i�x�j,���ϕ����i�x�j,�ő啗���i�x�j,�ŏ�����(m/s),���ϕ���(m/s),�ő啗��(m/s),�C��(���j,���x�i���j,�C��(hPa),�~�J��(mm),�~�J����(�b�j,�~�J���x(mm/h),�~�Ђ傤��(hit/���u),�~�Ђ傤����(�b�j,�~�Ђ傤���x(hit/���uh),�q�[�^���x(���j,�q�[�^�[�d���iV),�d���d���iV),�Q�Ɠd���iV)
2009/10/01,00:00:01,289,105,270,0.1,3.4,11.4,27.2,80.9,1008.1,0.00,0,0.0,0.0,0,0.0,26.4,0.0,11.9,3.469
2009/10/01,00:10:01,302,105,268,0.1,3.1,9.3,27.3,81.2,1008.2,0.00,0,0.0,0.0,0,0.0,26.3,0.0,11.8,3.472
2009/10/01,00:20:01,285,100,277,0.1,3.4,9.5,27.3,80.0,1008.3,0.00,0,0.0,0.0,0,0.0,26.6,0.0,11.7,3.469
2009/10/01,00:30:01,304,106,277,0.2,3.5,10.0,27.4,80.8,1008.2,0.00,0,0.0,0.0,0,0.0,26.6,0.0,12.2,3.469
2009/10/01,00:40:01,286,100,280,0.0,3.6,9.2,27.4,80.6,1008.1,0.00,0,0.0,0.0,0,0.0,26.6,0.0,11.8,3.467
2009/10/01,00:50:01,286,106,272,0.1,3.6,9.9,27.3,80.4,1008.1,0.00,0,0.0,0.0,0,0.0,27.1,0.0,12.1,3.469
2009/10/01,01:00:01,291,100,271,0.1,3.7,9.6,27.3,80.9,1008.1,0.00,0,0.0,0.0,0,0.0,26.4,0.0,11.9,3.470
2009/10/01,01:10:01,290,105,280,0.3,3.7,9.7,27.3,80.6,1008.0,0.00,0,0.0,0.0,0,0.0,26.6,0.0,11.7,3.468
2009/10/01,01:20:01,289,106,278,0.1,3.6,9.8,27.3,80.0,1008.1,0.00,0,0.0,0.0,0,0.0,26.4,0.0,12.1,3.470
2009/10/01,01:30:01,302,106,285,0.2,3.7,9.7,27.3,79.2,1008.0,0.00,0,0.0,0.0,0,0.0,26.9,0.0,11.7,3.469
2009/10/01,01:40:01,288,103,276,0.2,3.6,10.8,27.3,79.0,1007.8,0.00,0,0.0,0.0,0,0.0,26.6,0.0,11.7,3.470
2009/10/01,01:50:01,292,108,275,0.2,3.4,10.3,27.2,79.5,1007.8,0.00,0,0.0,0.0,0,0.0,26.4,0.0,12.1,3.470
2009/10/01,02:00:01,292,104,266,0.1,3.2,9.9,27.2,80.7,1007.7,0.00,0,0.0,0.0,0,0.0,26.4,0.0,12.0,3.469
2009/10/01,02:10:01,286,103,277,0.2,3.4,11.3,27.2,81.1,1007.7,0.02,90,0.0,0.0,0,0.0,26.3,0.0,11.8,3.470
2009/10/01,02:20:01,300,110,289,0.2,3.8,9.8,26.9,81.5,1007.6,0.00,0,0.0,0.0,0,0.0,25.8,0.0,12.0,3.469
2009/10/01,02:30:01,301,102,282,0.1,3.8,9.8,26.9,83.2,1007.6,0.00,0,0.0,0.0,0,0.0,25.8,0.0,12.1,3.469
2009/10/01,02:40:01,292,105,275,0.1,3.6,10.0,26.8,81.7,1007.5,0.00,0,0.0,0.0,0,0.0,25.9,0.0,11.8,3.467
2009/10/01,02:50:01,307,111,286,0.1,3.5,11.0,26.9,81.0,1007.4,0.00,0,0.0,0.0,0,0.0,25.9,0.0,12.1,3.469
2009/10/01,03:00:01,303,108,285,0.2,3.8,11.6,26.9,80.9,1007.4,0.00,0,0.0,0.0,0,0.0,25.8,0.0,12.1,3.474
2009/10/01,03:10:01,297,109,278,0.2,3.4,10.1,26.9,81.3,1007.3,0.00,0,0.0,0.0,0,0.0,26.1,0.0,12.0,3.469
2009/10/01,03:20:01,286,102,281,0.1,3.7,9.3,26.8,81.1,1007.3,0.00,0,0.0,0.0,0,0.0,26.1,0.0,12.1,3.470
2009/10/01,03:30:01,293,110,275,0.1,3.7,11.1,26.8,80.5,1007.1,0.00,0,0.0,0.0,0,0.0,26.1,0.0,11.7,3.470
2009/10/01,03:40:01,294,109,281,0.1,3.5,10.3,26.8,80.4,1007.2,0.00,0,0.0,0.0,0,0.0,25.9,0.0,12.1,3.470
2009/10/01,03:50:01,296,108,282,0.4,3.7,11.2,26.9,79.5,1007.3,0.00,0,0.0,0.0,0,0.0,26.1,0.0,11.7,3.470
2009/10/01,04:00:01,291,106,275,0.1,3.5,9.9,26.9,80.2,1007.2,0.00,0,0.0,0.0,0,0.0,25.9,0.0,12.1,3.469
2009/10/01,04:10:01,295,110,287,0.1,3.6,9.7,26.8,79.3,1007.1,0.00,0,0.0,0.0,0,0.0,25.9,0.0,12.1,3.468
2009/10/01,04:20:01,307,109,267,0.1,3.6,10.5,26.8,78.9,1007.1,0.00,0,0.0,0.0,0,0.0,25.9,0.0,11.7,3.469
2009/10/01,04:30:01,290,110,283,0.4,3.3,9.3,26.8,79.5,1007.1,0.00,0,0.0,0.0,0,0.0,25.8,0.0,11.5,3.470
2009/10/01,04:40:01,293,104,275,0.1,3.2,9.2,26.8,79.9,1007.1,0.00,0,0.0,0.0,0,0.0,25.8,0.0,11.8,3.469
2009/10/01,04:50:01,305,102,237,0.1,3.2,9.6,26.8,80.5,1007.1,0.00,0,0.0,0.0,0,0.0,25.8,0.0,12.1,3.469
2009/10/01,05:00:01,310,104,267,0.1,3.0,9.6,26.7,80.8,1007.1,0.00,0,0.0,0.0,0,0.0,26.1,0.0,11.6,3.470
2009/10/01,05:10:01,286,103,280,0.1,3.6,11.5,26.9,80.9,1007.2,0.00,0,0.0,0.0,0,0.0,25.9,0.0,11.7,3.470
2009/10/01,05:20:01,295,104,270,0.1,3.1,9.5,26.9,81.2,1007.1,0.00,0,0.0,0.0,0,0.0,25.8,0.0,11.9,3.470
2009/10/01,05:30:01,304,103,270,0.2,3.1,9.3,26.8,81.5,1007.1,0.00,0,0.0,0.0,0,0.0,25.9,0.0,11.9,3.469
2009/10/01,05:40:01,291,108,278,0.2,3.1,9.1,26.8,81.4,1007.2,0.00,0,0.0,0.0,0,0.0,25.8,0.0,11.8,3.469
2009/10/01,05:50:01,280,97,272,0.1,3.3,9.8,27.0,81.7,1007.1,0.00,0,0.0,0.0,0,0.0,26.1,0.0,12.1,3.469
2009/10/01,06:00:01,291,105,276,0.2,3.3,9.6,27.0,81.9,1007.1,0.00,0,0.0,0.0,0,0.0,26.1,0.0,11.9,3.468
2009/10/01,06:10:01,305,107,268,0.2,3.1,9.4,26.7,81.1,1007.0,0.00,0,0.0,0.0,0,0.0,26.1,0.0,11.7,3.473
2009/10/01,06:20:01,308,101,274,0.2,3.1,9.4,27.0,80.8,1007.1,0.00,0,0.0,0.0,0,0.0,26.1,0.0,12.2,3.469
2009/10/01,06:30:01,282,98,278,0.1,3.2,9.2,27.2,81.4,1007.2,0.00,0,0.0,0.0,0,0.0,26.3,0.0,11.9,3.470
2009/10/01,06:40:01,319,106,265,0.2,3.2,10.0,27.2,81.0,1007.2,0.00,0,0.0,0.0,0,0.0,26.6,0.0,12.2,3.469
2009/10/01,06:50:01,297,103,271,0.1,3.1,9.2,27.2,80.9,1007.3,0.00,0,0.0,0.0,0,0.0,26.4,0.0,11.7,3.469
2009/10/01,07:00:01,314,102,269,0.1,3.0,9.6,27.1,80.9,1007.4,0.00,0,0.0,0.0,0,0.0,26.4,0.0,11.7,3.469
2009/10/01,07:10:01,287,105,281,0.0,3.5,10.1,27.4,80.4,1007.5,0.00,0,0.0,0.0,0,0.0,26.8,0.0,11.8,3.469
2009/10/01,07:20:01,296,110,288,0.2,3.1,10.7,27.5,80.1,1007.6,0.00,0,0.0,0.0,0,0.0,27.9,0.0,11.8,3.468
2009/10/01,07:30:01,301,108,277,0.1,3.3,9.8,27.8,79.5,1007.7,0.00,0,0.0,0.0,0,0.0,27.6,0.0,11.9,3.469
2009/10/01,07:40:01,289,103,277,0.1,3.5,10.2,27.9,79.1,1007.7,0.00,0,0.0,0.0,0,0.0,27.8,0.0,11.8,3.468
2009/10/01,07:50:01,288,105,275,0.2,3.3,11.3,28.1,77.4,1007.7,0.00,0,0.0,0.0,0,0.0,29.0,0.0,11.8,3.469
2009/10/01,08:00:01,293,114,282,0.1,3.5,10.0,27.7,78.4,1007.7,0.00,0,0.0,0.0,0,0.0,27.9,0.0,11.7,3.469
2009/10/01,08:10:01,298,112,290,0.2,3.6,11.0,27.5,79.3,1007.8,0.00,0,0.0,0.0,0,0.0,27.8,0.0,11.8,3.469
2009/10/01,08:20:01,289,105,284,0.1,3.4,11.1,27.7,77.5,1007.7,0.00,0,0.0,0.0,0,0.0,28.1,0.0,11.5,3.467
2009/10/01,08:30:01,284,101,268,0.0,3.2,10.4,28.0,76.4,1007.7,0.00,0,0.0,0.0,0,0.0,28.8,0.0,11.9,3.468
2009/10/01,08:40:01,299,106,287,0.0,3.2,9.8,28.4,75.7,1007.7,0.00,0,0.0,0.0,0,0.0,29.5,0.0,11.8,3.469
2009/10/01,08:50:01,284,101,272,0.1,3.2,10.5,28.5,71.9,1007.9,0.00,0,0.0,0.0,0,0.0,30.3,0.0,12.0,3.468
2009/10/01,09:00:01,278,93,275,0.1,3.5,10.1,28.4,73.8,1008.0,0.00,0,0.0,0.0,0,0.0,30.0,0.0,12.1,3.468
2009/10/01,09:10:01,276,98,271,0.1,3.0,9.7,28.7,75.0,1008.0,0.00,0,0.0,0.0,0,0.0,29.8,0.0,11.7,3.469
2009/10/01,09:20:01,283,96,276,0.1,3.5,10.3,28.7,76.0,1008.0,0.00,0,0.0,0.0,0,0.0,30.0,0.0,11.7,3.468
2009/10/01,09:30:01,277,96,273,0.1,3.7,11.2,29.0,76.1,1008.0,0.00,0,0.0,0.0,0,0.0,30.8,0.0,11.9,3.468
2009/10/01,09:40:01,276,92,269,0.1,4.0,11.1,29.3,75.2,1007.9,0.00,0,0.0,0.0,0,0.0,31.5,0.0,11.8,3.468
2009/10/01,09:50:01,285,97,275,0.2,4.1,10.9,29.7,72.5,1007.9,0.00,0,0.0,0.0,0,0.0,32.1,0.0,11.7,3.467
2009/10/01,10:00:01,282,99,275,0.1,4.5,13.7,29.9,70.9,1007.9,0.00,0,0.0,0.0,0,0.0,32.3,0.0,11.5,3.467
2009/10/01,10:10:01,280,100,277,0.3,4.5,11.3,29.7,70.4,1007.8,0.00,0,0.0,0.0,0,0.0,32.1,0.0,12.0,3.468
2009/10/01,10:20:01,284,100,278,0.2,4.4,11.3,29.8,70.1,1007.8,0.00,0,0.0,0.0,0,0.0,32.3,0.0,11.8,3.467
2009/10/01,10:30:01,281,100,277,0.2,4.4,13.2,30.0,70.9,1007.8,0.00,0,0.0,0.0,0,0.0,32.1,0.0,11.6,3.468
2009/10/01,10:40:01,283,96,278,0.1,4.2,11.4,30.1,70.7,1007.8,0.00,0,0.0,0.0,0,0.0,32.1,0.0,11.9,3.468
2009/10/01,10:50:01,307,105,277,0.2,3.9,10.0,30.0,69.4,1007.9,0.00,0,0.0,0.0,0,0.0,32.8,0.0,11.9,3.468
2009/10/01,11:00:01,289,103,280,0.1,4.0,10.7,29.9,71.1,1007.8,0.00,0,0.0,0.0,0,0.0,32.5,0.0,11.8,3.468
2009/10/01,11:10:01,284,104,282,0.1,4.1,12.3,29.8,72.0,1007.7,0.00,0,0.0,0.0,0,0.0,31.6,0.0,11.5,3.468
2009/10/01,11:20:01,285,99,278,0.1,4.0,12.8,30.1,70.5,1007.8,0.00,0,0.0,0.0,0,0.0,32.1,0.0,11.8,3.468
2009/10/01,11:30:01,277,94,276,0.1,4.2,10.2,29.7,70.7,1007.5,0.00,0,0.0,0.0,0,0.0,31.3,0.0,11.7,3.467
2009/10/01,11:40:01,280,99,277,0.1,4.2,10.9,30.0,68.6,1007.4,0.00,0,0.0,0.0,0,0.0,32.1,0.0,11.5,3.464
2009/10/01,11:50:01,292,100,278,0.2,4.1,11.0,29.9,69.9,1007.4,0.00,0,0.0,0.0,0,0.0,31.8,0.0,11.6,3.467
2009/10/01,12:00:01,312,99,280,0.1,4.1,12.1,29.6,71.8,1007.2,0.00,0,0.0,0.0,0,0.0,31.1,0.0,11.5,3.468
2009/10/01,12:10:01,281,101,280,0.1,3.8,10.3,30.2,67.0,1006.9,0.00,0,0.0,0.0,0,0.0,32.8,0.0,11.7,3.468
2009/10/01,12:20:01,299,106,283,0.2,3.6,10.4,30.3,67.6,1006.8,0.00,0,0.0,0.0,0,0.0,32.5,0.0,11.6,3.468
2009/10/01,12:30:01,280,99,276,0.1,4.2,11.5,30.1,69.5,1006.7,0.00,10,0.0,0.0,0,0.0,33.0,0.0,11.8,3.468
2009/10/01,12:40:01,287,105,282,0.5,4.2,11.5,29.9,70.7,1006.6,0.00,0,0.0,0.0,0,0.0,32.0,0.0,11.7,3.469
2009/10/01,12:50:01,282,99,278,0.2,3.9,12.4,30.4,68.7,1006.4,0.00,0,0.0,0.0,0,0.0,33.3,0.0,11.9,3.465
2009/10/01,13:00:01,296,106,280,0.2,4.3,11.0,30.1,69.9,1006.2,0.00,0,0.0,0.0,0,0.0,32.6,0.0,11.6,3.468
2009/10/01,13:10:01,310,107,286,0.1,4.0,11.6,30.0,70.8,1006.2,0.00,0,0.0,0.0,0,0.0,32.5,0.0,11.8,3.467
2009/10/01,13:20:01,280,99,276,0.1,4.0,11.5,30.1,69.2,1006.1,0.00,0,0.0,0.0,0,0.0,32.5,0.0,11.8,3.467
2009/10/01,13:30:01,310,104,278,0.2,3.9,9.6,30.3,70.2,1006.0,0.00,0,0.0,0.0,0,0.0,33.0,0.0,11.7,3.467
2009/10/01,13:40:01,287,104,278,0.2,4.2,11.2,30.0,70.8,1005.9,0.00,0,0.0,0.0,0,0.0,33.0,0.0,11.7,3.469
2009/10/01,13:50:01,285,104,283,0.1,4.3,11.1,30.1,70.1,1005.9,0.00,0,0.0,0.0,0,0.0,32.8,0.0,11.9,3.467
2009/10/01,14:00:01,294,105,283,0.0,4.1,10.4,30.3,69.0,1005.8,0.00,0,0.0,0.0,0,0.0,33.1,0.0,11.8,3.467
2009/10/01,14:10:01,284,103,279,0.1,4.4,12.0,30.0,69.9,1005.7,0.00,0,0.0,0.0,0,0.0,32.3,0.0,11.9,3.467
2009/10/01,14:20:01,298,103,279,0.0,4.3,10.8,29.8,70.5,1005.5,0.00,0,0.0,0.0,0,0.0,31.8,0.0,11.9,3.467
2009/10/01,14:30:01,289,109,287,0.2,4.3,11.4,29.7,71.2,1005.4,0.00,0,0.0,0.0,0,0.0,31.6,0.0,11.8,3.467
2009/10/01,14:40:01,289,104,282,0.2,4.3,13.2,29.7,70.7,1005.3,0.00,0,0.0,0.0,0,0.0,31.8,0.0,11.5,3.467
2009/10/01,14:50:01,310,107,284,0.0,4.2,11.9,29.7,70.6,1005.3,0.00,0,0.0,0.0,0,0.0,31.8,0.0,11.7,3.467
2009/10/01,15:00:01,284,102,280,0.2,4.0,11.1,29.9,68.4,1005.2,0.00,0,0.0,0.0,0,0.0,32.0,0.0,11.5,3.467
2009/10/01,15:10:01,282,101,280,0.2,4.2,10.7,29.6,68.7,1005.2,0.00,0,0.0,0.0,0,0.0,31.8,0.0,11.5,3.469
2009/10/01,15:20:01,279,100,278,0.1,3.6,10.0,30.0,67.6,1005.2,0.00,0,0.0,0.0,0,0.0,32.3,0.0,11.5,3.468
2009/10/01,15:30:01,291,103,277,0.2,3.8,10.2,29.6,68.7,1005.1,0.00,0,0.0,0.0,0,0.0,31.8,0.0,11.8,3.469
2009/10/01,15:40:01,279,97,276,0.2,4.1,10.0,29.4,69.0,1005.1,0.00,0,0.0,0.0,0,0.0,31.8,0.0,11.9,3.467
2009/10/01,15:50:01,287,100,278,0.2,3.6,10.1,29.5,70.0,1005.2,0.00,0,0.0,0.0,0,0.0,31.8,0.0,11.7,3.467
2009/10/01,16:00:01,279,95,277,0.1,3.9,10.6,29.4,69.7,1005.1,0.00,0,0.0,0.0,0,0.0,31.3,0.0,11.7,3.468
2009/10/01,16:10:01,281,105,274,0.0,3.0,9.3,29.2,67.8,1005.0,0.00,0,0.0,0.0,0,0.0,31.0,0.0,11.7,3.469
2009/10/01,16:20:01,275,91,273,0.0,3.7,11.1,29.2,70.5,1005.0,0.00,0,0.0,0.0,0,0.0,31.0,0.0,12.0,3.468
2009/10/01,16:30:01,299,98,274,0.1,3.5,10.0,28.8,71.9,1004.9,0.00,0,0.0,0.0,0,0.0,30.0,0.0,11.8,3.468
2009/10/01,16:40:01,279,98,277,0.1,3.7,11.3,28.4,73.2,1004.9,0.00,0,0.0,0.0,0,0.0,29.3,0.0,11.7,3.469
2009/10/01,16:50:01,281,101,279,0.1,3.6,10.1,28.4,73.1,1005.0,0.00,0,0.0,0.0,0,0.0,29.3,0.0,11.9,3.469
2009/10/01,17:00:01,286,102,281,0.1,3.4,10.2,28.3,73.8,1005.2,0.00,0,0.0,0.0,0,0.0,29.0,0.0,11.7,3.469
2009/10/01,17:10:01,291,102,280,0.2,3.3,10.7,28.2,73.8,1005.2,0.00,0,0.0,0.0,0,0.0,28.8,0.0,11.9,3.468
2009/10/01,17:20:01,298,105,280,0.0,3.3,10.1,28.1,74.8,1005.4,0.00,0,0.0,0.0,0,0.0,28.5,0.0,11.7,3.469
2009/10/01,17:30:01,294,104,275,0.1,3.1,9.7,28.1,75.7,1005.5,0.00,0,0.0,0.0,0,0.0,28.1,0.0,11.8,3.468
2009/10/01,17:40:01,285,106,275,0.0,3.2,9.6,27.9,75.3,1005.6,0.00,0,0.0,0.0,0,0.0,27.6,0.0,11.8,3.469
2009/10/01,17:50:01,277,94,276,0.0,3.1,8.2,27.8,76.3,1005.7,0.00,0,0.0,0.0,0,0.0,27.3,0.0,11.9,3.470
2009/10/01,18:00:01,281,95,266,0.1,3.3,8.9,27.8,77.1,1005.8,0.00,0,0.0,0.0,0,0.0,27.1,0.0,11.8,3.469
2009/10/01,18:10:01,276,93,272,0.0,3.7,9.8,27.6,76.6,1005.8,0.00,0,0.0,0.0,0,0.0,26.9,0.0,12.0,3.470
2009/10/01,18:20:01,307,96,275,0.1,3.8,10.3,27.5,77.2,1005.8,0.00,0,0.0,0.0,0,0.0,26.8,0.0,11.6,3.469
2009/10/01,18:30:01,275,87,266,0.1,3.8,10.1,27.3,77.3,1005.8,0.00,0,0.0,0.0,0,0.0,26.6,0.0,11.5,3.470
2009/10/01,18:40:01,268,88,265,0.1,3.7,8.6,27.2,77.6,1005.9,0.00,0,0.0,0.0,0,0.0,26.3,0.0,11.7,3.469
2009/10/01,18:50:01,263,81,204,0.0,3.9,9.2,27.2,78.1,1006.1,0.00,0,0.0,0.0,0,0.0,26.3,0.0,11.7,3.469
2009/10/01,19:00:01,256,65,215,0.0,4.5,8.5,27.1,78.5,1006.2,0.00,0,0.0,0.0,0,0.0,26.1,0.0,11.9,3.470
2009/10/01,19:10:01,255,72,235,0.0,4.1,9.3,27.1,78.1,1006.3,0.00,0,0.0,0.0,0,0.0,26.1,0.0,11.9,3.470
2009/10/01,19:20:01,281,71,203,0.0,4.2,8.6,27.1,78.1,1006.5,0.00,0,0.0,0.0,0,0.0,26.1,0.0,11.5,3.470
2009/10/01,19:30:01,275,67,205,0.0,4.4,8.3,27.0,78.6,1006.4,0.00,0,0.0,0.0,0,0.0,26.1,0.0,11.8,3.469
2009/10/01,19:40:01,280,60,209,0.0,4.6,8.3,27.0,79.1,1006.5,0.00,0,0.0,0.0,0,0.0,25.9,0.0,11.8,3.470
2009/10/01,19:50:01,269,69,214,0.1,4.5,10.0,27.2,79.2,1006.5,0.00,0,0.0,0.0,0,0.0,26.3,0.0,11.7,3.470
2009/10/01,20:00:01,266,62,208,0.0,4.5,8.7,27.2,79.4,1006.7,0.00,0,0.0,0.0,0,0.0,26.3,0.0,11.9,3.468
2009/10/01,20:10:01,274,56,205,0.1,4.9,8.7,27.2,79.4,1006.7,0.00,0,0.0,0.0,0,0.0,26.1,0.0,11.7,3.472
2009/10/01,20:20:01,268,59,204,0.1,4.9,10.1,27.1,79.4,1006.7,0.00,0,0.0,0.0,0,0.0,26.1,0.0,11.5,3.470
2009/10/01,20:30:01,276,60,206,0.0,4.5,9.0,27.1,79.4,1006.6,0.00,0,0.0,0.0,0,0.0,26.1,0.0,11.9,3.469
2009/10/01,20:40:01,274,58,204,0.1,4.7,9.0,27.1,80.0,1006.7,0.00,0,0.0,0.0,0,0.0,26.1,0.0,11.5,3.469
2009/10/01,20:50:01,284,60,206,0.1,4.8,9.3,27.2,80.1,1006.7,0.00,0,0.0,0.0,0,0.0,26.4,0.0,11.8,3.470
2009/10/01,21:00:01,282,56,206,0.1,4.9,9.8,27.2,80.5,1006.7,0.00,0,0.0,0.0,0,0.0,26.3,0.0,11.8,3.470
2009/10/01,21:10:01,253,67,224,0.1,4.5,9.3,27.3,80.9,1006.7,0.00,0,0.0,0.0,0,0.0,26.4,0.0,11.5,3.469
2009/10/01,21:20:01,280,80,208,0.1,3.9,8.7,27.2,80.9,1006.6,0.00,0,0.0,0.0,0,0.0,26.4,0.0,11.6,3.469
2009/10/01,21:30:01,266,85,217,0.0,3.9,9.6,27.3,80.7,1006.5,0.00,0,0.0,0.0,0,0.0,26.4,0.0,11.5,3.469
2009/10/01,21:40:01,273,96,270,0.3,3.9,11.1,27.4,80.9,1006.5,0.03,140,0.0,0.0,0,0.0,26.3,0.0,11.5,3.470
2009/10/01,21:50:01,274,88,272,0.1,4.7,10.5,27.1,81.9,1006.5,0.00,30,0.0,0.0,0,0.0,25.8,0.0,11.9,3.470
2009/10/01,22:00:01,259,76,203,0.2,4.7,10.2,26.9,82.6,1006.5,0.00,0,0.0,0.0,0,0.0,26.1,0.0,11.6,3.469
2009/10/01,22:10:01,284,100,270,0.1,4.2,11.1,26.9,82.1,1006.5,0.00,0,0.0,0.0,0,0.0,25.9,0.0,11.6,3.470
2009/10/01,22:20:01,296,113,287,0.1,3.4,9.7,26.9,82.4,1006.5,0.00,0,0.0,0.0,0,0.0,25.6,0.0,11.7,3.470
2009/10/01,22:30:01,288,106,286,0.1,3.7,10.0,26.7,80.5,1006.4,0.00,0,0.0,0.0,0,0.0,25.8,0.0,11.8,3.469
2009/10/01,22:40:01,291,111,286,0.1,3.7,11.0,26.8,79.6,1006.2,0.00,0,0.0,0.0,0,0.0,25.6,0.0,11.8,3.468
2009/10/01,22:50:01,294,112,294,0.2,4.2,13.1,27.1,78.8,1006.2,0.00,0,0.0,0.0,0,0.0,25.9,0.0,11.9,3.469
2009/10/01,23:00:01,296,116,288,0.1,3.4,10.4,26.9,80.0,1006.2,0.00,0,0.0,0.0,0,0.0,25.9,0.0,11.5,3.470
2009/10/01,23:10:01,301,117,258,0.2,3.4,11.6,26.8,80.5,1006.1,0.00,0,0.0,0.0,0,0.0,25.8,0.0,11.8,3.468
2009/10/01,23:20:01,297,115,294,0.2,4.1,10.8,27.0,80.4,1006.1,0.00,0,0.0,0.0,0,0.0,25.9,0.0,12.1,3.469
2009/10/01,23:30:01,302,121,282,0.4,3.5,10.4,27.0,80.6,1005.8,0.00,0,0.0,0.0,0,0.0,26.1,0.0,11.7,3.470
2009/10/01,23:40:01,302,121,298,0.3,4.2,10.3,27.1,80.0,1005.8,0.00,0,0.0,0.0,0,0.0,25.9,0.0,11.9,3.469
2009/10/01,23:50:01,301,119,299,0.2,4.2,10.9,27.0,80.3,1005.8,0.00,0,0.0,0.0,0,0.0,26.1,0.0,11.6,3.469
2009/10/02,00:00:01,301,120,294,0.1,3.7,9.7,26.9,80.4,1005.8,0.00,0,0.0,0.0,0,0.0,26.1,0.0,11.8,3.470
2009/10/02,00:10:01,301,116,298,0.0,4.4,10.5,26.8,80.4,1005.6,0.00,0,0.0,0.0,0,0.0,25.6,0.0,11.5,3.470
2009/10/02,00:20:01,306,123,300,0.3,3.8,10.5,26.8,79.8,1005.4,0.00,0,0.0,0.0,0,0.0,25.9,0.0,11.5,3.469
2009/10/02,00:30:01,303,122,302,0.1,4.1,12.3,26.9,79.3,1005.2,0.00,0,0.0,0.0,0,0.0,25.9,0.0,11.7,3.469
2009/10/02,00:40:01,302,119,297,0.2,3.8,10.4,26.8,79.7,1005.0,0.00,0,0.0,0.0,0,0.0,26.3,0.0,11.5,3.470
2009/10/02,00:50:01,301,121,300,0.1,3.9,10.9,26.8,79.8,1004.8,0.00,0,0.0,0.0,0,0.0,25.8,0.0,11.5,3.469
2009/10/02,01:00:01,309,126,306,0.1,4.0,12.3,26.8,79.5,1004.7,0.00,0,0.0,0.0,0,0.0,25.9,0.0,11.9,3.470
2009/10/02,01:10:01,303,121,300,0.1,4.1,11.3,26.9,77.9,1004.7,0.00,0,0.0,0.0,0,0.0,25.9,0.0,11.6,3.470
2009/10/02,01:20:01,301,119,280,0.2,4.0,10.5,26.9,78.6,1004.8,0.00,0,0.0,0.0,0,0.0,25.9,0.0,12.0,3.473
2009/10/02,01:30:01,303,121,297,0.0,3.9,9.7,26.8,79.5,1004.7,0.00,0,0.0,0.0,0,0.0,25.8,0.0,11.7,3.469
2009/10/02,01:40:01,301,117,274,0.1,4.0,9.8,26.7,78.8,1004.7,0.00,0,0.0,0.0,0,0.0,25.8,0.0,11.5,3.469
2009/10/02,01:50:01,299,120,289,0.1,3.6,10.0,26.8,78.9,1004.6,0.00,0,0.0,0.0,0,0.0,25.8,0.0,11.6,3.469
2009/10/02,02:00:01,304,119,289,0.1,3.6,9.3,26.8,79.1,1004.4,0.00,0,0.0,0.0,0,0.0,25.8,0.0,11.9,3.470
2009/10/02,02:10:01,295,113,288,0.1,4.0,9.9,26.8,78.6,1004.3,0.00,0,0.0,0.0,0,0.0,25.8,0.0,11.9,3.469
2009/10/02,02:20:01,296,115,294,0.1,5.3,10.5,26.9,77.1,1004.1,0.00,0,0.0,0.0,0,0.0,26.1,0.0,11.5,3.469
2009/10/02,02:30:01,290,110,286,0.1,5.3,10.6,27.0,76.4,1004.1,0.00,0,0.0,0.0,0,0.0,26.1,0.0,12.1,3.470
2009/10/02,02:40:01,293,108,288,0.1,5.2,11.3,27.0,77.2,1004.1,0.00,0,0.0,0.0,0,0.0,25.9,0.0,11.5,3.468
2009/10/02,02:50:01,286,106,284,0.1,5.5,10.1,26.9,76.7,1003.9,0.00,0,0.0,0.0,0,0.0,25.9,0.0,11.7,3.470
2009/10/02,03:00:01,287,105,284,0.1,5.6,10.2,26.9,78.4,1003.9,0.00,0,0.0,0.0,0,0.0,25.8,0.0,11.6,3.470
2009/10/02,03:10:01,267,75,259,0.1,5.7,9.9,26.8,78.6,1003.8,0.00,0,0.0,0.0,0,0.0,25.9,0.0,11.6,3.470
2009/10/02,03:20:01,258,77,213,0.2,5.7,8.5,26.7,78.9,1003.7,0.00,0,0.0,0.0,0,0.0,25.8,0.0,11.9,3.469
2009/10/02,03:30:01,258,71,255,0.1,5.5,8.7,26.7,79.0,1003.8,0.00,0,0.0,0.0,0,0.0,25.8,0.0,11.7,3.469
2009/10/02,03:40:01,217,38,215,0.3,4.9,8.8,26.6,79.7,1003.6,0.00,0,0.0,0.0,0,0.0,25.8,0.0,11.9,3.469
2009/10/02,03:50:01,248,67,227,0.1,5.6,10.3,26.4,79.4,1003.5,0.00,0,0.0,0.0,0,0.0,25.3,0.0,11.5,3.470
2009/10/02,04:00:01,254,64,246,0.2,5.4,9.1,26.6,78.2,1003.5,0.00,0,0.0,0.0,0,0.0,25.3,0.0,11.8,3.470
2009/10/02,04:10:01,281,108,269,0.2,4.9,8.4,26.3,79.9,1003.4,0.00,0,0.0,0.0,0,0.0,25.3,0.0,11.9,3.470
2009/10/02,04:20:01,317,109,285,0.0,4.1,7.7,26.2,80.7,1003.4,0.00,0,0.0,0.0,0,0.0,24.9,0.0,11.9,3.469
2009/10/02,04:30:01,296,113,295,0.0,4.2,9.1,26.1,80.4,1003.4,0.00,0,0.0,0.0,0,0.0,24.9,0.0,11.5,3.470
2009/10/02,04:40:01,289,107,286,0.0,4.2,9.3,26.3,79.2,1003.4,0.00,0,0.0,0.0,0,0.0,25.3,0.0,11.6,3.470
2009/10/02,04:50:01,280,93,279,0.0,4.0,8.8,26.4,80.2,1003.5,0.00,0,0.0,0.0,0,0.0,24.9,0.0,11.6,3.469
2009/10/02,05:00:01,260,68,215,0.0,4.4,9.5,26.4,79.4,1003.3,0.00,0,0.0,0.0,0,0.0,25.4,0.0,11.5,3.472
2009/10/02,05:10:01,273,91,272,0.0,4.2,9.2,26.5,78.6,1003.3,0.00,0,0.0,0.0,0,0.0,25.6,0.0,11.7,3.469
2009/10/02,05:20:01,284,105,276,0.1,4.3,11.3,26.8,74.4,1003.4,0.00,0,0.0,0.0,0,0.0,25.8,0.0,11.8,3.469
2009/10/02,05:30:01,286,103,282,0.0,4.0,10.1,27.0,75.9,1003.4,0.00,0,0.0,0.0,0,0.0,25.9,0.0,11.9,3.469
2009/10/02,05:40:01,283,105,280,0.0,4.3,10.8,27.0,76.6,1003.4,0.00,0,0.0,0.0,0,0.0,26.1,0.0,11.8,3.470
2009/10/02,05:50:01,289,106,286,0.2,5.3,12.2,27.0,76.7,1003.6,0.00,0,0.0,0.0,0,0.0,25.9,0.0,11.7,3.470
2009/10/02,06:00:01,283,103,281,0.1,5.5,12.7,27.0,77.0,1003.6,0.00,0,0.0,0.0,0,0.0,25.9,0.0,12.1,3.472
2009/10/02,06:10:01,292,104,285,0.1,5.4,12.7,27.0,76.1,1003.6,0.00,0,0.0,0.0,0,0.0,26.1,0.0,12.0,3.470
2009/10/02,06:20:01,282,101,280,0.1,4.9,11.3,27.1,74.1,1003.6,0.00,0,0.0,0.0,0,0.0,26.4,0.0,12.2,3.469
2009/10/02,06:30:01,278,99,276,0.1,4.7,12.0,27.3,73.2,1003.6,0.00,0,0.0,0.0,0,0.0,26.4,0.0,11.7,3.469
2009/10/02,06:40:01,278,94,277,0.1,4.9,11.3,27.3,72.1,1003.6,0.00,0,0.0,0.0,0,0.0,26.4,0.0,12.1,3.469
2009/10/02,06:50:01,272,89,266,0.1,4.8,10.9,27.3,73.8,1003.8,0.00,0,0.0,0.0,0,0.0,26.6,0.0,12.1,3.470
2009/10/02,07:00:01,265,79,256,0.1,5.2,11.1,27.3,73.6,1003.9,0.00,0,0.0,0.0,0,0.0,26.8,0.0,12.2,3.470
2009/10/02,07:10:01,270,66,207,0.0,4.8,11.0,27.7,73.5,1004.0,0.00,0,0.0,0.0,0,0.0,27.6,0.0,12.0,3.469
2009/10/02,07:20:01,258,69,210,0.2,4.8,10.4,27.7,74.9,1004.1,0.00,0,0.0,0.0,0,0.0,27.6,0.0,12.1,3.469
2009/10/02,07:30:01,257,74,246,0.1,4.6,11.4,27.6,74.7,1004.2,0.00,0,0.0,0.0,0,0.0,27.4,0.0,11.9,3.469
2009/10/02,07:40:01,256,70,216,0.1,5.0,11.0,27.6,74.7,1004.3,0.00,0,0.0,0.0,0,0.0,27.4,0.0,11.9,3.468
2009/10/02,07:50:01,257,70,209,0.1,5.0,11.5,27.7,75.0,1004.4,0.00,0,0.0,0.0,0,0.0,27.6,0.0,11.9,3.469
2009/10/02,08:00:01,266,60,211,0.1,5.1,9.8,27.9,75.0,1004.6,0.00,0,0.0,0.0,0,0.0,28.3,0.0,11.6,3.469
2009/10/02,08:10:01,221,37,218,0.1,5.1,8.9,28.1,75.1,1004.7,0.00,0,0.0,0.0,0,0.0,29.1,0.0,11.9,3.468
2009/10/02,08:20:01,192,9,187,0.1,4.5,7.8,28.5,73.9,1004.8,0.00,0,0.0,0.0,0,0.0,30.3,0.0,11.9,3.467
2009/10/02,08:30:01,176,349,170,0.2,4.1,7.6,28.6,72.9,1004.8,0.00,0,0.0,0.0,0,0.0,30.8,0.0,11.7,3.468
2009/10/02,08:40:01,173,348,169,0.1,4.1,8.0,28.9,72.5,1004.9,0.00,0,0.0,0.0,0,0.0,32.1,0.0,11.9,3.468
2009/10/02,08:50:01,174,354,172,0.1,4.3,8.3,29.1,71.5,1004.8,0.00,0,0.0,0.0,0,0.0,32.5,0.0,11.7,3.468
2009/10/02,09:00:01,174,350,157,0.1,4.1,8.4,29.2,70.5,1004.8,0.00,0,0.0,0.0,0,0.0,32.6,0.0,11.6,3.467
2009/10/02,09:10:01,176,350,170,0.1,4.1,8.2,29.2,71.5,1004.8,0.00,0,0.0,0.0,0,0.0,32.5,0.0,11.5,3.467
2009/10/02,09:20:01,166,335,152,0.1,3.7,8.1,29.1,72.8,1004.8,0.00,0,0.0,0.0,0,0.0,32.3,0.0,11.7,3.467
2009/10/02,09:30:01,149,325,127,0.1,3.2,8.5,29.5,70.1,1004.8,0.00,0,0.0,0.0,0,0.0,33.8,0.0,11.9,3.463
2009/10/02,09:40:01,131,310,45,0.1,3.1,7.7,29.1,72.6,1004.8,0.00,0,0.0,0.0,0,0.0,33.0,0.0,11.7,3.468
2009/10/02,09:50:01,146,323,122,0.1,3.4,7.7,29.1,72.7,1004.8,0.00,0,0.0,0.0,0,0.0,32.6,0.0,11.6,3.468
2009/10/02,10:00:01,145,313,130,0.1,3.2,9.0,29.2,72.4,1004.7,0.00,0,0.0,0.0,0,0.0,32.5,0.0,11.4,3.468
2009/10/02,10:10:01,137,316,88,0.1,3.1,8.3,28.9,74.3,1004.6,0.00,0,0.0,0.0,0,0.0,31.0,0.0,11.7,3.468
2009/10/02,10:20:01,146,327,145,0.1,3.4,8.6,29.5,72.4,1004.6,0.00,0,0.0,0.0,0,0.0,33.8,0.0,11.7,3.468
2009/10/02,10:30:01,148,321,141,0.0,3.3,8.4,29.4,71.6,1004.6,0.00,0,0.0,0.0,0,0.0,33.1,0.0,11.7,3.467
2009/10/02,10:40:01,158,342,156,0.0,4.1,7.7,29.3,74.5,1004.5,0.00,0,0.0,0.0,0,0.0,31.5,0.0,11.8,3.468
2009/10/02,10:50:01,153,329,112,0.0,3.5,7.6,28.9,74.4,1004.4,0.00,0,0.0,0.0,0,0.0,30.5,0.0,12.1,3.468
2009/10/02,11:00:01,159,335,156,0.1,3.6,8.6,29.6,72.2,1004.3,0.00,0,0.0,0.0,0,0.0,33.0,0.0,11.5,3.468
2009/10/02,11:10:01,140,313,90,0.0,2.7,8.7,29.7,71.1,1004.2,0.00,0,0.0,0.0,0,0.0,33.7,0.0,12.1,3.467
2009/10/02,11:20:01,140,311,119,0.1,2.5,8.4,29.4,71.8,1004.1,0.00,0,0.0,0.0,0,0.0,31.6,0.0,11.6,3.468
2009/10/02,11:30:01,143,326,142,0.0,3.1,8.3,29.5,70.1,1004.0,0.00,0,0.0,0.0,0,0.0,32.0,0.0,11.9,3.467
2009/10/02,11:40:01,160,337,159,0.0,3.8,7.9,29.6,69.4,1003.9,0.00,0,0.0,0.0,0,0.0,32.3,0.0,11.9,3.469
2009/10/02,11:50:01,144,324,144,0.0,3.2,8.5,29.9,70.6,1003.8,0.00,0,0.0,0.0,0,0.0,32.3,0.0,11.6,3.468
2009/10/02,12:00:01,145,324,144,0.0,3.0,8.5,29.7,70.4,1003.7,0.00,0,0.0,0.0,0,0.0,32.0,0.0,11.9,3.468
2009/10/02,12:10:01,141,325,141,0.0,3.3,8.8,29.9,70.7,1003.6,0.00,0,0.0,0.0,0,0.0,32.6,0.0,11.9,3.467
2009/10/02,12:20:01,191,0,176,0.0,5.2,9.1,30.2,70.3,1003.4,0.00,0,0.0,0.0,0,0.0,33.0,0.0,11.5,3.467
2009/10/02,12:30:01,269,78,203,0.0,3.6,9.3,29.5,72.6,1003.4,0.00,0,0.0,0.0,0,0.0,31.8,0.0,11.9,3.468
2009/10/02,12:40:01,265,79,212,0.0,3.6,8.6,29.6,72.6,1003.3,0.00,0,0.0,0.0,0,0.0,31.8,0.0,11.5,3.467
2009/10/02,12:50:01,264,62,213,0.0,4.3,8.7,29.3,72.6,1003.2,0.00,0,0.0,0.0,0,0.0,31.8,0.0,11.0,3.468
2009/10/02,13:00:01,263,70,209,0.1,3.8,8.3,29.1,73.7,1003.1,0.00,0,0.0,0.0,0,0.0,31.3,0.0,11.8,3.469
2009/10/02,13:10:01,262,40,214,0.1,5.4,8.7,29.1,74.0,1003.0,0.00,0,0.0,0.0,0,0.0,31.5,0.0,11.7,3.467
2009/10/02,13:20:01,200,16,147,0.1,7.1,9.4,29.4,73.2,1003.1,0.00,0,0.0,0.0,0,0.0,31.8,0.0,11.5,3.468
2009/10/02,13:30:01,203,5,149,0.1,6.6,8.9,29.4,73.1,1003.0,0.00,0,0.0,0.0,0,0.0,31.6,0.0,11.5,3.467
2009/10/02,13:40:01,176,351,159,0.1,5.3,10.1,29.5,74.7,1002.8,0.00,0,0.0,0.0,0,0.0,31.6,0.0,11.6,3.468
2009/10/02,13:50:01,154,329,150,0.1,4.4,10.6,29.8,73.2,1002.7,0.00,0,0.0,0.0,0,0.0,33.3,0.0,11.6,3.468
2009/10/02,14:00:01,151,329,146,0.0,4.1,9.6,29.5,73.2,1002.6,0.00,0,0.0,0.0,0,0.0,31.8,0.0,11.8,3.468
2009/10/02,14:10:01,162,328,148,0.1,4.0,10.9,29.1,73.7,1002.6,0.00,0,0.0,0.0,0,0.0,30.1,0.0,11.7,3.468
2009/10/02,14:20:01,201,335,148,0.0,3.9,11.2,28.8,74.6,1002.6,0.00,0,0.0,0.0,0,0.0,29.3,0.0,11.6,3.469
2009/10/02,14:30:01,168,340,158,0.0,3.9,8.8,29.1,74.1,1002.4,0.00,20,0.0,0.0,0,0.0,30.1,0.0,12.0,3.468